| time (UTC) | temp C | wind direction | speed KPH | gust KPH | rain 1hr cm | rain 24hr cm | rain mn cm | humidity % | barometer mb |
| 20260503190632 | 14 | 293 | 8.0 | 24.1 | 0.00 | 0.00 | 0.00 | 34 | 1012.0 |
| 20260503190132 | 13 | 233 | 9.7 | 20.9 | 0.00 | 0.00 | 0.00 | 35 | 1012.0 |
| 20260503185630 | 13 | 229 | 9.7 | 29.0 | 0.00 | 0.00 | 0.00 | 35 | 1012.1 |
| 20260503185131 | 13 | 219 | 6.4 | 29.0 | 0.00 | 0.00 | 0.00 | 34 | 1012.2 |
| 20260503184632 | 13 | 311 | 6.4 | 25.7 | 0.00 | 0.00 | 0.00 | 37 | 1012.2 |
| 20260503184132 | 13 | 216 | 8.0 | 25.7 | 0.00 | 0.00 | 0.00 | 34 | 1012.2 |
| 20260503183631 | 13 | 230 | 11.3 | 37.0 | 0.00 | 0.00 | 0.00 | 39 | 1012.2 |
| 20260503183131 | 13 | 235 | 11.3 | 37.0 | 0.00 | 0.00 | 0.00 | 38 | 1012.4 |
| 20260503182630 | 13 | 192 | 8.0 | 25.7 | 0.00 | 0.00 | 0.00 | 37 | 1012.3 |
| 20260503182131 | 13 | 225 | 8.0 | 29.0 | 0.00 | 0.00 | 0.00 | 37 | 1012.4 |
| 20260503181633 | 13 | 250 | 8.0 | 27.4 | 0.00 | 0.00 | 0.00 | 34 | 1012.5 |
| 20260503181128 | 13 | 293 | 6.4 | 22.5 | 0.00 | 0.00 | 0.00 | 36 | 1012.5 |
| 20260503180630 | 13 | 281 | 4.8 | 14.5 | 0.00 | 0.00 | 0.00 | 41 | 1012.4 |
| 20260503180129 | 12 | 238 | 4.8 | 16.1 | 0.00 | 0.00 | 0.00 | 38 | 1012.5 |
| 20260503175629 | 12 | 184 | 8.0 | 24.1 | 0.00 | 0.00 | 0.00 | 39 | 1012.6 |
| 20260503175128 | 12 | 263 | 9.7 | 25.7 | 0.00 | 0.00 | 0.00 | 37 | 1012.6 |
| 20260503174900 | 12 | 267 | 11.3 | 32.2 | 0.00 | 0.00 | 0.00 | 41 | 1012.6 |
| 20260503174128 | 12 | 192 | 9.7 | 32.2 | 0.00 | 0.00 | 0.00 | 38 | 1012.6 |
| 20260503173630 | 12 | 252 | 6.4 | 19.3 | 0.00 | 0.00 | 0.00 | 39 | 1012.6 |
| 20260503173129 | 12 | 323 | 4.8 | 19.3 | 0.00 | 0.00 | 0.00 | 43 | 1012.7 |
| 20260503172628 | 12 | 245 | 4.8 | 30.6 | 0.00 | 0.00 | 0.00 | 42 | 1012.8 |
| 20260503172127 | 12 | 229 | 8.0 | 30.6 | 0.00 | 0.00 | 0.00 | 40 | 1012.7 |
| 20260503171626 | 12 | 218 | 8.0 | 22.5 | 0.00 | 0.00 | 0.00 | 40 | 1012.7 |
| 20260503171126 | 12 | 250 | 4.8 | 22.5 | 0.00 | 0.00 | 0.00 | 41 | 1012.7 |
| 20260503170628 | 12 | 302 | 4.8 | 16.1 | 0.00 | 0.00 | 0.00 | 43 | 1012.8 |
| 20260503170128 | 11 | 273 | 6.4 | 19.3 | 0.00 | 0.00 | 0.00 | 42 | 1012.7 |
| 20260503150935 | 9 | 214 | 8.0 | 27.4 | 0.00 | 0.00 | 0.00 | 49 | 1013.5 |
| 20260503150707 | 10 | 233 | 3.2 | 27.4 | 0.00 | 0.00 | 0.00 | 48 | 1013.5 |
| 20260503150206 | 9 | 228 | 1.6 | 9.7 | 0.00 | 0.00 | 0.00 | 49 | 1013.4 |
| 20260503130838 | 7 | 321 | 1.6 | 11.3 | 0.00 | 0.00 | 0.00 | 58 | 1013.3 |
| 20260503130331 | 7 | 277 | 1.6 | 16.1 | 0.00 | 0.00 | 0.00 | 59 | 1013.2 |
| 20260503110722 | 6 | 231 | 1.6 | 4.8 | 0.00 | 0.00 | 0.00 | 64 | 1012.5 |
| 20260503110226 | 6 | 250 | 0.0 | 1.6 | 0.00 | 0.00 | 0.00 | 62 | 1012.3 |
| 20260503110222 | 6 | 250 | 0.0 | 3.2 | 0.00 | 0.00 | 0.00 | 64 | 1012.4 |
| 20260503100212 | 6 | 261 | 0.0 | 0.0 | 0.00 | 0.00 | 0.00 | 63 | 1011.4 |
| 20260503090153 | 5 | 319 | 0.0 | 0.0 | 0.00 | 0.00 | 0.00 | 64 | 1010.8 |
| 20260503081601 | 5 | 245 | 0.0 | 0.0 | 0.00 | 0.00 | 0.00 | 66 | 1010.6 |
| 20260503081054 | 5 | 245 | 0.0 | 1.6 | 0.00 | 0.00 | 0.00 | 66 | 1010.5 |
| 20260503080547 | 5 | 245 | 0.0 | 3.2 | 0.00 | 0.00 | 0.00 | 66 | 1010.5 |
| 20260503072501 | 6 | 245 | 0.0 | 0.0 | 0.00 | 0.00 | 0.00 | 63 | 1010.3 |
| 20260503072226 | 6 | 245 | 0.0 | 0.0 | 0.00 | 0.00 | 0.00 | 63 | 1010.4 |
| 20260503071447 | 6 | 245 | 0.0 | 1.6 | 0.00 | 0.00 | 0.00 | 62 | 1010.3 |
| 20260503070941 | 6 | 245 | 0.0 | 0.0 | 0.00 | 0.00 | 0.00 | 60 | 1010.3 |
| 20260503070436 | 6 | 245 | 0.0 | 0.0 | 0.00 | 0.00 | 0.00 | 60 | 1010.3 |
| 20260503060327 | 7 | 245 | 0.0 | 6.4 | 0.00 | 0.00 | 0.00 | 57 | 1010.7 |
| 20260503054823 | 7 | 269 | 0.0 | 4.8 | 0.00 | 0.00 | 0.00 | 57 | 1010.7 |
| 20260503054320 | 7 | 243 | 0.0 | 3.2 | 0.00 | 0.00 | 0.00 | 57 | 1010.7 |
| 20260503053819 | 7 | 243 | 0.0 | 3.2 | 0.00 | 0.00 | 0.00 | 55 | 1010.8 |
| 20260503053319 | 7 | 257 | 0.0 | 3.2 | 0.00 | 0.00 | 0.00 | 57 | 1010.9 |
| 20260503052814 | 7 | 262 | 0.0 | 4.8 | 0.00 | 0.00 | 0.00 | 56 | 1010.8 |
| 20260503052545 | 8 | 263 | 0.0 | 4.8 | 0.00 | 0.00 | 0.00 | 55 | 1010.8 |
| 20260503051812 | 8 | 262 | 0.0 | 0.0 | 0.00 | 0.00 | 0.00 | 55 | 1010.8 |
| 20260503051309 | 8 | 262 | 0.0 | 0.0 | 0.00 | 0.00 | 0.00 | 55 | 1010.8 |
| 20260503050806 | 8 | 262 | 0.0 | 3.2 | 0.00 | 0.00 | 0.00 | 55 | 1010.8 |
| 20260503050305 | 8 | 262 | 0.0 | 3.2 | 0.00 | 0.00 | 0.00 | 55 | 1010.9 |
| 20260503045805 | 8 | 244 | 0.0 | 0.0 | 0.00 | 0.00 | 0.00 | 54 | 1010.9 |
| 20260503045301 | 8 | 244 | 0.0 | 0.0 | 0.00 | 0.00 | 0.00 | 55 | 1011.1 |
| 20260503044802 | 8 | 244 | 0.0 | 0.0 | 0.00 | 0.00 | 0.00 | 56 | 1011.2 |
| 20260503044301 | 8 | 244 | 0.0 | 1.6 | 0.00 | 0.00 | 0.00 | 55 | 1011.1 |
| 20260503044032 | 8 | 244 | 0.0 | 1.6 | 0.00 | 0.00 | 0.00 | 54 | 1011.2 |
| 20260503043301 | 8 | 244 | 0.0 | 1.6 | 0.00 | 0.00 | 0.00 | 55 | 1011.3 |
| 20260503043029 | 8 | 244 | 0.0 | 1.6 | 0.00 | 0.00 | 0.00 | 56 | 1011.3 |
| 20260503042258 | 8 | 244 | 0.0 | 1.6 | 0.00 | 0.00 | 0.00 | 55 | 1011.3 |
| 20260503041753 | 8 | 244 | 0.0 | 4.8 | 0.00 | 0.00 | 0.00 | 54 | 1011.3 |
| 20260503041252 | 8 | 244 | 0.0 | 4.8 | 0.00 | 0.00 | 0.00 | 55 | 1011.3 |
| 20260503040752 | 8 | 244 | 0.0 | 6.4 | 0.00 | 0.00 | 0.00 | 55 | 1011.3 |
| 20260503040252 | 8 | 231 | 0.0 | 6.4 | 0.00 | 0.00 | 0.00 | 54 | 1011.3 |
| 20260503035751 | 8 | 231 | 0.0 | 4.8 | 0.00 | 0.00 | 0.00 | 54 | 1011.1 |
| 20260503035252 | 8 | 287 | 0.0 | 3.2 | 0.00 | 0.00 | 0.00 | 54 | 1011.2 |
| 20260503034752 | 8 | 291 | 0.0 | 3.2 | 0.00 | 0.00 | 0.00 | 54 | 1011.3 |
| 20260503034253 | 8 | 231 | 0.0 | 3.2 | 0.00 | 0.00 | 0.00 | 52 | 1011.2 |
| 20260503033753 | 8 | 221 | 0.0 | 3.2 | 0.00 | 0.00 | 0.00 | 55 | 1011.2 |
| 20260503033247 | 8 | 331 | 0.0 | 0.0 | 0.00 | 0.00 | 0.00 | 53 | 1011.2 |
| 20260503032747 | 8 | 333 | 0.0 | 0.0 | 0.00 | 0.00 | 0.00 | 53 | 1011.2 |
| 20260503032247 | 8 | 333 | 0.0 | 3.2 | 0.00 | 0.00 | 0.00 | 53 | 1011.2 |
| 20260503031749 | 9 | 333 | 0.0 | 4.8 | 0.00 | 0.00 | 0.00 | 54 | 1011.3 |
| 20260503031248 | 9 | 258 | 0.0 | 4.8 | 0.00 | 0.00 | 0.00 | 55 | 1011.3 |
| 20260503030748 | 9 | 236 | 0.0 | 1.6 | 0.00 | 0.00 | 0.00 | 53 | 1011.3 |
| 20260503030247 | 9 | 236 | 0.0 | 1.6 | 0.00 | 0.00 | 0.00 | 53 | 1011.3 |
| 20260503025747 | 9 | 237 | 0.0 | 3.2 | 0.00 | 0.00 | 0.00 | 52 | 1011.4 |
| 20260503025249 | 9 | 237 | 0.0 | 3.2 | 0.00 | 0.00 | 0.00 | 51 | 1011.4 |
| 20260503024741 | 9 | 244 | 0.0 | 0.0 | 0.00 | 0.00 | 0.00 | 51 | 1011.4 |
| 20260503024235 | 9 | 267 | 0.0 | 0.0 | 0.00 | 0.00 | 0.00 | 50 | 1011.5 |
| 20260503023729 | 9 | 267 | 0.0 | 1.6 | 0.00 | 0.00 | 0.00 | 49 | 1011.4 |
| 20260503023223 | 9 | 267 | 0.0 | 1.6 | 0.00 | 0.00 | 0.00 | 50 | 1011.4 |
| 20260503022718 | 10 | 267 | 0.0 | 1.6 | 0.00 | 0.00 | 0.00 | 51 | 1011.4 |
| 20260503022213 | 10 | 267 | 0.0 | 4.8 | 0.00 | 0.00 | 0.00 | 50 | 1011.4 |
| 20260503021705 | 10 | 267 | 0.0 | 4.8 | 0.00 | 0.00 | 0.00 | 50 | 1011.4 |
| 20260503021200 | 10 | 236 | 0.0 | 4.8 | 0.00 | 0.00 | 0.00 | 51 | 1011.4 |
| 20260503020653 | 10 | 311 | 0.0 | 4.8 | 0.00 | 0.00 | 0.00 | 50 | 1011.4 |
| 20260503020148 | 10 | 220 | 0.0 | 8.0 | 0.00 | 0.00 | 0.00 | 51 | 1011.4 |
| 20260503015642 | 10 | 254 | 0.0 | 8.0 | 0.00 | 0.00 | 0.00 | 49 | 1011.4 |
| 20260503015407 | 10 | 207 | 0.0 | 4.8 | 0.00 | 0.00 | 0.00 | 51 | 1011.2 |
| 20260503014901 | 10 | 250 | 0.0 | 4.8 | 0.00 | 0.00 | 0.00 | 49 | 1011.3 |
| 20260503014125 | 10 | 281 | 1.6 | 4.8 | 0.00 | 0.00 | 0.00 | 50 | 1011.3 |
| 20260503013617 | 10 | 236 | 1.6 | 8.0 | 0.00 | 0.00 | 0.00 | 49 | 1011.3 |
| 20260503013110 | 10 | 272 | 0.0 | 8.0 | 0.00 | 0.00 | 0.00 | 49 | 1011.3 |
| 20260503012604 | 10 | 244 | 0.0 | 4.8 | 0.00 | 0.00 | 0.00 | 50 | 1011.3 |
| 20260503012059 | 10 | 244 | 0.0 | 4.8 | 0.00 | 0.00 | 0.00 | 49 | 1011.3 |
| 20260503011551 | 10 | 250 | 0.0 | 3.2 | 0.00 | 0.00 | 0.00 | 49 | 1011.3 |
| 20260503011044 | 10 | 255 | 0.0 | 3.2 | 0.00 | 0.00 | 0.00 | 49 | 1011.3 |
| 20260503010537 | 10 | 248 | 0.0 | 1.6 | 0.00 | 0.00 | 0.00 | 48 | 1011.2 |
| 20260503010031 | 10 | 248 | 0.0 | 3.2 | 0.00 | 0.00 | 0.00 | 48 | 1011.1 |
| 20260503005756 | 11 | 248 | 1.6 | 6.4 | 0.00 | 0.00 | 0.00 | 47 | 1011.0 |
| 20260503005020 | 11 | 229 | 0.0 | 6.4 | 0.00 | 0.00 | 0.00 | 47 | 1010.8 |
| 20260503004513 | 11 | 248 | 0.0 | 4.8 | 0.00 | 0.00 | 0.00 | 47 | 1010.8 |
| 20260503004007 | 11 | 248 | 1.6 | 4.8 | 0.00 | 0.00 | 0.00 | 46 | 1010.7 |
| 20260503003732 | 11 | 231 | 0.0 | 4.8 | 0.00 | 0.00 | 0.00 | 48 | 1010.6 |
| 20260503002955 | 11 | 246 | 0.0 | 3.2 | 0.00 | 0.00 | 0.00 | 44 | 1010.6 |
| 20260503002450 | 11 | 217 | 0.0 | 3.2 | 0.00 | 0.00 | 0.00 | 45 | 1010.5 |
| 20260503001943 | 11 | 235 | 0.0 | 4.8 | 0.00 | 0.00 | 0.00 | 45 | 1010.5 |
| 20260503001438 | 11 | 242 | 0.0 | 4.8 | 0.00 | 0.00 | 0.00 | 44 | 1010.5 |
| 20260503001202 | 11 | 238 | 0.0 | 1.6 | 0.00 | 0.00 | 0.00 | 44 | 1010.4 |
| 20260503000656 | 12 | 238 | 0.0 | 1.6 | 0.00 | 0.00 | 0.00 | 43 | 1010.1 |
| 20260502235920 | 12 | 238 | 0.0 | 3.2 | 0.00 | 0.00 | 0.00 | 43 | 1010.4 |
| 20260502235413 | 12 | 238 | 0.0 | 3.2 | 0.00 | 0.00 | 0.00 | 43 | 1010.4 |
| 20260502234908 | 12 | 250 | 0.0 | 3.2 | 0.00 | 0.00 | 0.00 | 45 | 1010.4 |
| 20260502234403 | 12 | 250 | 0.0 | 3.2 | 0.00 | 0.00 | 0.00 | 43 | 1010.3 |
| 20260502233857 | 12 | 243 | 0.0 | 3.2 | 0.00 | 0.00 | 0.00 | 42 | 1010.3 |
| 20260502233350 | 12 | 256 | 0.0 | 11.3 | 0.00 | 0.00 | 0.00 | 44 | 1010.1 |
| 20260502233345 | 12 | 279 | 1.6 | 11.3 | 0.00 | 0.00 | 0.00 | 41 | 1010.1 |
| 20260502232338 | 13 | 259 | 0.0 | 8.0 | 0.00 | 0.00 | 0.00 | 41 | 1010.3 |
| 20260502231833 | 13 | 222 | 1.6 | 4.8 | 0.00 | 0.00 | 0.00 | 43 | 1010.4 |
| 20260502231557 | 13 | 280 | 1.6 | 3.2 | 0.00 | 0.00 | 0.00 | 39 | 1010.4 |
| 20260502230819 | 13 | 323 | 1.6 | 6.4 | 0.00 | 0.00 | 0.00 | 37 | 1010.5 |
| 20260502230314 | 13 | 302 | 1.6 | 8.0 | 0.00 | 0.00 | 0.00 | 39 | 1010.3 |
| 20260502225808 | 13 | 279 | 1.6 | 8.0 | 0.00 | 0.00 | 0.00 | 42 | 1010.1 |
| 20260502225532 | 13 | 327 | 0.0 | 6.4 | 0.00 | 0.00 | 0.00 | 42 | 1010.3 |
| 20260502224756 | 13 | 300 | 0.0 | 3.2 | 0.00 | 0.00 | 0.00 | 39 | 1010.3 |
| 20260502224250 | 13 | 283 | 0.0 | 4.8 | 0.00 | 0.00 | 0.00 | 38 | 1010.1 |
| 20260502224245 | 13 | 284 | 0.0 | 4.8 | 0.00 | 0.00 | 0.00 | 39 | 1010.1 |
| 20260502223238 | 13 | 188 | 0.0 | 3.2 | 0.00 | 0.00 | 0.00 | 43 | 1010.0 |
| 20260502222731 | 13 | 223 | 0.0 | 1.6 | 0.00 | 0.00 | 0.00 | 46 | 1010.1 |
| 20260502222226 | 13 | 223 | 0.0 | 3.2 | 0.00 | 0.00 | 0.00 | 42 | 1010.0 |
| 20260502221719 | 14 | 223 | 0.0 | 3.2 | 0.00 | 0.00 | 0.00 | 42 | 1010.1 |
| 20260502221215 | 14 | 338 | 0.0 | 1.6 | 0.00 | 0.00 | 0.00 | 38 | 1010.0 |
| 20260502220708 | 14 | 333 | 0.0 | 1.6 | 0.00 | 0.00 | 0.00 | 40 | 1010.0 |
| 20260502220201 | 14 | 348 | 0.0 | 1.6 | 0.00 | 0.00 | 0.00 | 41 | 1010.1 |
| 20260502215656 | 14 | 348 | 1.6 | 4.8 | 0.00 | 0.00 | 0.00 | 43 | 1010.3 |
| 20260502215422 | 14 | 348 | 1.6 | 4.8 | 0.00 | 0.00 | 0.00 | 39 | 1010.3 |
| 20260502214645 | 14 | 267 | 1.6 | 8.0 | 0.00 | 0.00 | 0.00 | 41 | 1010.4 |
| 20260502214137 | 14 | 242 | 1.6 | 8.0 | 0.00 | 0.00 | 0.00 | 39 | 1010.1 |
| 20260502213904 | 14 | 226 | 1.6 | 6.4 | 0.00 | 0.00 | 0.00 | 39 | 1010.1 |
| 20260502213125 | 14 | 230 | 1.6 | 6.4 | 0.00 | 0.00 | 0.00 | 39 | 1010.4 |
| 20260502212626 | 14 | 320 | 1.6 | 6.4 | 0.00 | 0.00 | 0.00 | 37 | 1010.3 |
| 20260502212122 | 14 | 329 | 1.6 | 8.0 | 0.00 | 0.00 | 0.00 | 36 | 1010.1 |
| 20260502211623 | 15 | 223 | 1.6 | 8.0 | 0.00 | 0.00 | 0.00 | 37 | 1010.1 |
| 20260502211123 | 15 | 289 | 1.6 | 8.0 | 0.00 | 0.00 | 0.00 | 41 | 1010.0 |
| 20260502210622 | 15 | 310 | 1.6 | 8.0 | 0.00 | 0.00 | 0.00 | 39 | 1009.8 |
| 20260502210122 | 15 | 188 | 3.2 | 14.5 | 0.00 | 0.00 | 0.00 | 39 | 1009.8 |
| 20260502205852 | 15 | 233 | 3.2 | 14.5 | 0.00 | 0.00 | 0.00 | 40 | 1009.8 |
| 20260502205120 | 15 | 143 | 3.2 | 14.5 | 0.00 | 0.00 | 0.00 | 40 | 1009.8 |
| 20260502204852 | 15 | 300 | 3.2 | 17.7 | 0.00 | 0.00 | 0.00 | 38 | 1009.8 |
| 20260502204118 | 15 | 289 | 3.2 | 17.7 | 0.00 | 0.00 | 0.00 | 41 | 1009.9 |
| 20260502203617 | 15 | 310 | 1.6 | 6.4 | 0.00 | 0.00 | 0.00 | 37 | 1009.9 |
| 20260502203115 | 14 | 231 | 3.2 | 9.7 | 0.00 | 0.00 | 0.00 | 42 | 1010.0 |
| 20260502202615 | 14 | 236 | 3.2 | 9.7 | 0.00 | 0.00 | 0.00 | 43 | 1010.0 |
| 20260502202115 | 14 | 227 | 1.6 | 11.3 | 0.00 | 0.00 | 0.00 | 40 | 1010.0 |
| 20260502201617 | 14 | 258 | 3.2 | 11.3 | 0.00 | 0.00 | 0.00 | 42 | 1010.1 |
| 20260502201346 | 15 | 262 | 3.2 | 9.7 | 0.00 | 0.00 | 0.00 | 42 | 1010.3 |
| 20260502200615 | 15 | 288 | 3.2 | 9.7 | 0.00 | 0.00 | 0.00 | 40 | 1010.3 |
| 20260502200116 | 15 | 180 | 4.8 | 20.9 | 0.00 | 0.00 | 0.00 | 42 | 1010.4 |
| 20260502195614 | 16 | 215 | 6.4 | 20.9 | 0.00 | 0.00 | 0.00 | 38 | 1010.3 |
| 20260502195346 | 16 | 227 | 6.4 | 20.9 | 0.00 | 0.00 | 0.00 | 40 | 1010.5 |
| 20260502194614 | 16 | 229 | 4.8 | 20.9 | 0.00 | 0.00 | 0.00 | 41 | 1010.4 |
| 20260502194115 | 16 | 336 | 3.2 | 12.9 | 0.00 | 0.00 | 0.00 | 38 | 1010.6 |
| 20260502193614 | 16 | 230 | 3.2 | 12.9 | 0.00 | 0.00 | 0.00 | 38 | 1010.6 |
| 20260502193120 | 16 | 269 | 4.8 | 16.1 | 0.00 | 0.00 | 0.00 | 38 | 1010.6 |
| 20260502193115 | 16 | 265 | 3.2 | 14.5 | 0.00 | 0.00 | 0.00 | 38 | 1010.7 |
| 20260502192346 | 16 | 206 | 6.4 | 16.1 | 0.00 | 0.00 | 0.00 | 42 | 1010.8 |
| 20260502191845 | 16 | 192 | 4.8 | 19.3 | 0.00 | 0.00 | 0.00 | 38 | 1010.8 |
| 20260502191116 | 15 | 261 | 6.4 | 19.3 | 0.00 | 0.00 | 0.00 | 40 | 1010.9 |